| time (UTC) | temp C | wind direction | speed KPH | gust KPH | rain 1hr cm | rain 24hr cm | rain mn cm | humidity % | barometer mb |
| 20260510120047 | 20 | 25 | 1.6 | 6.4 | 0.00 | 2.57 | 0.00 | 90 | 1013.4 |
| 20260510114604 | 20 | 6 | 1.6 | 3.2 | 0.00 | 2.57 | 0.00 | 90 | 1013.1 |
| 20260510113052 | 20 | 13 | 0.0 | 3.2 | 0.00 | 2.57 | 0.00 | 89 | 1012.8 |
| 20260510111542 | 20 | 330 | 0.0 | 8.0 | 0.00 | 2.57 | 0.00 | 89 | 1012.5 |
| 20260510110135 | 19 | 331 | 0.0 | 0.0 | 0.00 | 2.57 | 0.00 | 88 | 1012.2 |
| 20260510104532 | 20 | 332 | 0.0 | 0.0 | 0.00 | 2.57 | 0.00 | 88 | 1012.1 |
| 20260510103030 | 20 | 332 | 0.0 | 1.6 | 0.00 | 2.57 | 0.00 | 88 | 1011.9 |
| 20260510101529 | 20 | 332 | 0.0 | 1.6 | 0.00 | 2.57 | 0.00 | 88 | 1011.8 |
| 20260510100033 | 20 | 332 | 0.0 | 0.0 | 0.00 | 2.57 | 0.00 | 87 | 1011.6 |
| 20260510094532 | 20 | 332 | 0.0 | 1.6 | 0.00 | 2.57 | 0.00 | 87 | 1011.4 |
| 20260510093023 | 21 | 332 | 0.0 | 1.6 | 0.00 | 2.57 | 0.00 | 87 | 1011.8 |
| 20260510091519 | 21 | 332 | 0.0 | 1.6 | 0.00 | 2.57 | 0.00 | 87 | 1011.7 |
| 20260510090021 | 22 | 241 | 0.0 | 1.6 | 0.00 | 2.57 | 0.00 | 87 | 1011.5 |
| 20260510084520 | 22 | 241 | 0.0 | 6.4 | 0.00 | 2.57 | 0.00 | 87 | 1011.5 |
| 20260510083019 | 22 | 218 | 0.0 | 6.4 | 0.00 | 2.57 | 0.00 | 87 | 1011.4 |
| 20260510081516 | 22 | 227 | 3.2 | 8.0 | 0.00 | 2.57 | 0.00 | 87 | 1011.4 |
| 20260510080016 | 22 | 233 | 1.6 | 8.0 | 0.00 | 2.57 | 0.00 | 87 | 1011.3 |
| 20260510074515 | 22 | 240 | 1.6 | 6.4 | 0.00 | 2.57 | 0.00 | 87 | 1011.2 |
| 20260510073014 | 22 | 204 | 3.2 | 6.4 | 0.00 | 2.57 | 0.00 | 88 | 1011.2 |
| 20260510071519 | 21 | 229 | 1.6 | 6.4 | 0.00 | 2.57 | 0.00 | 88 | 1011.2 |
| 20260510070013 | 21 | 215 | 1.6 | 4.8 | 0.00 | 2.57 | 0.00 | 88 | 1011.2 |
| 20260510064512 | 21 | 255 | 0.0 | 4.8 | 0.00 | 2.57 | 0.00 | 88 | 1011.4 |
| 20260510063011 | 21 | 253 | 0.0 | 3.2 | 0.00 | 2.57 | 0.00 | 88 | 1011.3 |
| 20260510061514 | 22 | 224 | 0.0 | 3.2 | 0.00 | 2.57 | 0.00 | 88 | 1011.1 |
| 20260510060009 | 22 | 141 | 0.0 | 3.2 | 0.00 | 2.57 | 0.00 | 88 | 1011.3 |
| 20260510054508 | 22 | 139 | 0.0 | 4.8 | 0.00 | 2.57 | 0.00 | 88 | 1011.5 |
| 20260510053008 | 22 | 159 | 1.6 | 8.0 | 0.00 | 2.57 | 0.00 | 88 | 1011.0 |
| 20260510051506 | 22 | 138 | 0.0 | 11.3 | 0.00 | 2.57 | 0.00 | 88 | 1011.4 |
| 20260510050002 | 22 | 155 | 4.8 | 12.9 | 0.00 | 2.57 | 0.00 | 89 | 1010.6 |
| 20260510044611 | 22 | 216 | 4.8 | 12.9 | 0.00 | 2.57 | 2.57 | 89 | 1010.3 |
| 20260510043110 | 22 | 165 | 3.2 | 8.0 | 0.00 | 2.57 | 2.57 | 89 | 1011.0 |
| 20260510041600 | 21 | 179 | 6.4 | 12.9 | 0.00 | 2.57 | 2.57 | 89 | 1011.2 |
| 20260510040058 | 21 | 205 | 4.8 | 9.7 | 0.00 | 2.57 | 2.57 | 88 | 1011.5 |
| 20260510034558 | 21 | 117 | 1.6 | 11.3 | 0.00 | 2.57 | 2.57 | 88 | 1011.8 |
| 20260510033123 | 21 | 144 | 1.6 | 6.4 | 0.00 | 2.57 | 2.57 | 88 | 1012.2 |
| 20260510031621 | 21 | 137 | 3.2 | 9.7 | 0.00 | 2.57 | 2.57 | 87 | 1012.4 |
| 20260510024517 | 21 | 151 | 1.6 | 6.4 | 0.00 | 2.57 | 2.57 | 87 | 1012.8 |
| 20260510023011 | 21 | 267 | 0.0 | 3.2 | 0.00 | 2.57 | 2.57 | 87 | 1012.6 |
| 20260510021509 | 21 | 70 | 1.6 | 4.8 | 0.00 | 2.57 | 2.57 | 86 | 1012.2 |
| 20260510020009 | 21 | 337 | 0.0 | 4.8 | 0.00 | 2.57 | 2.57 | 86 | 1012.1 |
| 20260510014507 | 21 | 37 | 0.0 | 8.0 | 0.00 | 2.57 | 2.57 | 86 | 1011.7 |
| 20260510013005 | 21 | 148 | 1.6 | 6.4 | 0.00 | 2.57 | 2.57 | 86 | 1011.5 |
| 20260510011505 | 21 | 134 | 1.6 | 11.3 | 0.00 | 2.57 | 2.57 | 85 | 1011.0 |
| 20260510010004 | 21 | 132 | 1.6 | 8.0 | 0.00 | 2.57 | 2.57 | 85 | 1010.9 |
| 20260510004503 | 22 | 144 | 3.2 | 14.5 | 0.00 | 2.57 | 2.57 | 84 | 1010.9 |
| 20260510003004 | 22 | 64 | 1.6 | 12.9 | 0.00 | 2.57 | 2.57 | 84 | 1010.8 |
| 20260510001508 | 22 | 143 | 3.2 | 9.7 | 0.00 | 2.57 | 2.57 | 84 | 1010.9 |
| 20260510000002 | 22 | 75 | 1.6 | 9.7 | 0.00 | 2.57 | 2.57 | 84 | 1010.7 |
| 20260509234506 | 22 | 146 | 4.8 | 12.9 | 0.00 | 2.57 | 2.57 | 84 | 1010.3 |
| 20260509233100 | 22 | 86 | 3.2 | 14.5 | 0.00 | 2.57 | 2.57 | 84 | 1010.0 |
| 20260509231559 | 22 | 8 | 3.2 | 12.9 | 0.00 | 2.57 | 2.57 | 84 | 1010.0 |
| 20260509230107 | 22 | 121 | 4.8 | 22.5 | 0.00 | 2.57 | 2.57 | 83 | 1009.8 |
| 20260509224558 | 22 | 24 | 4.8 | 19.3 | 0.00 | 2.57 | 2.57 | 83 | 1009.8 |
| 20260509223100 | 22 | 102 | 3.2 | 9.7 | 0.00 | 2.57 | 2.57 | 82 | 1009.6 |
| 20260509221557 | 22 | 166 | 1.6 | 12.9 | 0.00 | 2.57 | 2.57 | 83 | 1009.6 |
| 20260509214555 | 23 | 325 | 1.6 | 8.0 | 0.00 | 2.57 | 2.57 | 83 | 1009.6 |
| 20260509213058 | 22 | 94 | 1.6 | 9.7 | 0.00 | 2.57 | 2.57 | 84 | 1009.5 |
| 20260509211557 | 21 | 60 | 1.6 | 9.7 | 0.00 | 2.57 | 2.57 | 85 | 1009.8 |
| 20260509210100 | 21 | 57 | 3.2 | 11.3 | 0.00 | 2.57 | 2.57 | 85 | 1010.4 |
| 20260509204600 | 22 | 53 | 8.0 | 14.5 | 0.03 | 2.57 | 2.57 | 83 | 1010.7 |
| 20260509203053 | 23 | 56 | 3.2 | 9.7 | 0.03 | 2.57 | 2.57 | 84 | 1010.6 |
| 20260509201553 | 23 | 145 | 3.2 | 9.7 | 0.03 | 2.57 | 2.57 | 86 | 1010.5 |
| 20260509200054 | 22 | 66 | 1.6 | 17.7 | 0.03 | 2.57 | 2.57 | 88 | 1010.0 |
| 20260509194556 | 22 | 116 | 4.8 | 27.4 | 0.51 | 2.54 | 2.54 | 90 | 1009.2 |
| 20260509193052 | 21 | 94 | 4.8 | 17.7 | 0.56 | 2.54 | 2.54 | 89 | 1010.0 |
| 20260509191558 | 21 | 67 | 3.2 | 19.3 | 0.61 | 2.54 | 2.54 | 90 | 1010.0 |
| 20260509190056 | 21 | 133 | 3.2 | 22.5 | 1.17 | 2.54 | 2.54 | 89 | 1009.8 |
| 20260509184549 | 20 | 68 | 4.8 | 19.3 | 1.32 | 2.03 | 2.03 | 89 | 1010.0 |
| 20260509183048 | 21 | 112 | 4.8 | 20.9 | 1.27 | 1.98 | 1.98 | 89 | 1010.1 |
| 20260509181552 | 20 | 53 | 4.8 | 17.7 | 1.22 | 1.93 | 1.93 | 89 | 1010.6 |
| 20260509180045 | 20 | 166 | 4.8 | 14.5 | 0.69 | 1.35 | 1.37 | 87 | 1010.9 |
| 20260509174553 | 21 | 112 | 3.2 | 14.5 | 0.71 | 0.71 | 0.71 | 87 | 1011.0 |
| 20260509173049 | 21 | 50 | 3.2 | 11.3 | 0.71 | 0.71 | 0.71 | 88 | 1011.0 |
| 20260509171549 | 21 | 64 | 1.6 | 11.3 | 0.71 | 0.71 | 0.71 | 87 | 1011.0 |
| 20260509170044 | 21 | 40 | 1.6 | 16.1 | 0.66 | 0.66 | 0.66 | 86 | 1011.6 |
| 20260509164536 | 21 | 78 | 4.8 | 12.9 | 0.00 | 0.00 | 0.00 | 82 | 1010.8 |
| 20260509163032 | 23 | 44 | 1.6 | 9.7 | 0.00 | 0.00 | 0.00 | 77 | 1010.9 |
| 20260509161531 | 26 | 246 | 4.8 | 17.7 | 0.00 | 0.00 | 0.00 | 84 | 1010.6 |
| 20260509160030 | 26 | 158 | 3.2 | 16.1 | 0.00 | 0.00 | 0.00 | 85 | 1010.7 |
| 20260509154533 | 26 | 213 | 1.6 | 8.0 | 0.00 | 0.00 | 0.00 | 85 | 1010.7 |
| 20260509153032 | 26 | 200 | 0.0 | 4.8 | 0.00 | 0.00 | 0.00 | 88 | 1010.3 |
| 20260509151526 | 25 | 255 | 1.6 | 6.4 | 0.00 | 0.00 | 0.00 | 87 | 1010.4 |
| 20260509150024 | 25 | 224 | 1.6 | 4.8 | 0.00 | 0.00 | 0.00 | 88 | 1010.1 |
| 20260509144524 | 25 | 236 | 1.6 | 8.0 | 0.00 | 0.00 | 0.00 | 88 | 1009.9 |
| 20260509143023 | 25 | 248 | 3.2 | 6.4 | 0.00 | 0.00 | 0.00 | 88 | 1009.7 |
| 20260509141521 | 25 | 249 | 1.6 | 4.8 | 0.00 | 0.00 | 0.00 | 88 | 1009.9 |
| 20260509140024 | 25 | 241 | 1.6 | 9.7 | 0.00 | 0.00 | 0.00 | 89 | 1010.2 |
| 20260509134520 | 25 | 253 | 0.0 | 6.4 | 0.00 | 0.00 | 0.00 | 89 | 1010.1 |
| 20260509133019 | 25 | 260 | 3.2 | 6.4 | 0.00 | 0.00 | 0.00 | 89 | 1009.9 |
| 20260509131530 | 25 | 207 | 1.6 | 4.8 | 0.00 | 0.00 | 0.00 | 89 | 1010.1 |
| 20260509130025 | 25 | 241 | 1.6 | 4.8 | 0.00 | 0.00 | 0.00 | 89 | 1010.2 |
| 20260509124521 | 25 | 246 | 1.6 | 6.4 | 0.00 | 0.00 | 0.00 | 89 | 1010.0 |
| 20260509123023 | 25 | 239 | 3.2 | 6.4 | 0.00 | 0.00 | 0.00 | 89 | 1010.0 |
| 20260509121517 | 25 | 225 | 1.6 | 6.4 | 0.00 | 0.00 | 0.00 | 89 | 1009.9 |